Location: Haieshausen
(51.8387°N, 9.9720°E)
Time: 03:58:58
(UTC+00:00)

CZ-2D R/B - Pass Details

Date: 14 July 2020
Orbit: 792 x 844 km, 98.7° (Epoch: 10 August)

Event Time Altitude Azimuth Distance (km) Brightness Sun altitude
Rises 02:17:44 0° 9° (N) 3,343 6.5 -7.5°
Reaches altitude 10° 02:20:15 10° 1° (N) 2,415 5.4 -7.3°
Maximum altitude 02:24:58 33° 299° (WNW) 1,359 3.2 -6.8°
Drops below altitude 10° 02:29:43 10° 237° (WSW) 2,432 4.0 -6.3°
Enters shadow 02:30:27 - 234° (SW) 2,696 4.2 -6.2°
